Time,TemperatureF,DewpointF,PressureIn,WindDirection,WindDirectionDegrees,WindSpeedMPH,WindSpeedGustMPH,Humidity,HourlyPrecipIn,Conditions,Clouds,dailyrainin,SolarRadiationWatts/m^2,SoftwareType,DateUTC
2013-11-04 00:00:00,59.1,52.9,30.12,North,0,0.0,6.0,80,0.00,,---,0.00,0.00,VWS V14.01,2013-11-04 05:00:00,
2013-11-04 01:00:00,58.4,53.3,30.12,ENE,68,1.0,7.0,83,0.00,,---,0.00,0.00,VWS V14.01,2013-11-04 06:00:00,
2013-11-04 02:00:00,57.8,53.3,30.12,ENE,68,1.0,8.0,85,0.00,,---,0.00,0.00,VWS V14.01,2013-11-04 07:00:00,
2013-11-04 03:00:00,58.1,53.6,30.11,ENE,68,1.0,7.0,85,0.00,,---,0.00,0.00,VWS V14.01,2013-11-04 08:00:00,
2013-11-04 04:00:00,59.5,55.3,30.12,ENE,68,0.0,6.0,86,0.00,,---,0.00,0.00,VWS V14.01,2013-11-04 09:00:00,
2013-11-04 05:00:00,61.2,57.3,30.13,NE,45,0.0,4.0,87,0.00,,---,0.00,0.00,VWS V14.01,2013-11-04 10:00:00,
2013-11-04 06:00:00,62.2,57.6,30.15,NE,45,0.0,4.0,85,0.00,,---,0.00,0.00,VWS V14.01,2013-11-04 11:00:00,
2013-11-04 07:00:00,62.9,57.7,30.15,ENE,68,0.0,7.0,83,0.00,,---,0.00,3.00,VWS V14.01,2013-11-04 12:00:00,
2013-11-04 08:00:00,65.4,58.4,30.16,ENE,68,2.0,10.0,78,0.00,,---,0.00,80.00,VWS V14.01,2013-11-04 13:00:00,
2013-11-04 09:00:00,66.5,59.1,30.17,ENE,68,3.0,13.0,77,0.00,,---,0.00,109.00,VWS V14.01,2013-11-04 14:00:00,
2013-11-04 10:00:00,72.5,61.8,30.16,ENE,68,3.0,13.0,69,0.00,,---,0.00,354.00,VWS V14.01,2013-11-04 15:00:00,
2013-11-04 11:00:00,74.9,62.8,30.15,ENE,68,5.0,14.0,66,0.00,,---,0.00,460.00,VWS V14.01,2013-11-04 16:00:00,
2013-11-04 12:00:00,77.6,61.7,30.13,East,90,5.0,20.0,58,0.00,,---,0.00,562.00,VWS V14.01,2013-11-04 17:00:00,
2013-11-04 13:00:00,75.7,62.7,30.12,ENE,68,5.0,22.0,64,0.00,,---,0.00,359.00,VWS V14.01,2013-11-04 18:00:00,
2013-11-04 14:00:00,76.7,60.3,30.10,East,90,4.0,17.0,57,0.00,,---,0.00,474.00,VWS V14.01,2013-11-04 19:00:00,
2013-11-04 15:00:00,78.2,60.2,30.11,ENE,68,5.0,13.0,54,0.00,,---,0.00,270.00,VWS V14.01,2013-11-04 20:00:00,
2013-11-04 16:00:00,75.2,60.8,30.12,East,90,5.0,18.0,61,0.00,,---,0.00,130.00,VWS V14.01,2013-11-04 21:00:00,
2013-11-04 17:00:00,73.5,61.0,30.13,ENE,68,4.0,15.0,65,0.00,,---,0.00,55.00,VWS V14.01,2013-11-04 22:00:00,
2013-11-04 18:00:00,71.9,62.0,30.13,ENE,68,3.0,12.0,71,0.00,,---,0.00,4.00,VWS V14.01,2013-11-04 23:00:00,
2013-11-04 19:00:00,71.0,62.7,30.15,ENE,68,2.0,9.0,75,0.00,,---,0.00,0.00,VWS V14.01,2013-11-05 00:00:00,
2013-11-04 20:00:00,70.0,62.8,30.16,ENE,68,2.0,10.0,78,0.00,,---,0.00,0.00,VWS V14.01,2013-11-05 01:00:00,
2013-11-04 21:00:00,69.3,63.2,30.17,ENE,68,2.0,10.0,81,0.00,,---,0.00,0.00,VWS V14.01,2013-11-05 02:00:00,
2013-11-04 22:00:00,68.7,63.7,30.17,ENE,68,2.0,9.0,84,0.00,,---,0.00,0.00,VWS V14.01,2013-11-05 03:00:00,
2013-11-04 23:00:00,68.3,64.6,30.16,ENE,68,2.0,11.0,88,0.00,,---,0.00,0.00,VWS V14.01,2013-11-05 04:00:00,